UAL1336 KSFO-KSAN

Flight info

Callsign UAL1336
Flight time 1h 11m
Altitude 39000
Route WESLA5 YYUNG LAX COMIX2
Aircraft B738/M-SDE2E3FGHIRWXY/LB1

Departure

Time 2026-05-06 01:49
Airport San Francisco International Airport (KSFO)

Arrival

Time 2026-05-06 03:01
Airport San Diego International Airport (KSAN)
Time Latitude Longitude Altitude Speed Heading
2026-05-06 00:54 37.61980 -122.38403 22 ft 0 kts 216°
2026-05-06 01:31 37.61984 -122.38399 21 ft 4 kts 214°
2026-05-06 01:31 37.62008 -122.38383 22 ft 4 kts 194°
2026-05-06 01:31 37.62033 -122.38381 23 ft 4 kts 156°
2026-05-06 01:31 37.62047 -122.38395 21 ft 1 kts 117°
2026-05-06 01:32 37.62048 -122.38399 21 ft 0 kts 117°
2026-05-06 01:34 37.62043 -122.38386 21 ft 5 kts 117°
2026-05-06 01:34 37.62039 -122.38377 22 ft 6 kts 117°
2026-05-06 01:35 37.62023 -122.38340 21 ft 7 kts 118°
2026-05-06 01:35 37.61994 -122.38270 21 ft 11 kts 118°
2026-05-06 01:35 37.61947 -122.38163 22 ft 16 kts 117°
2026-05-06 01:35 37.61892 -122.38026 21 ft 18 kts 117°
2026-05-06 01:36 37.61833 -122.37878 21 ft 19 kts 114°
2026-05-06 01:36 37.61783 -122.37720 21 ft 19 kts 112°
2026-05-06 01:36 37.61735 -122.37566 21 ft 18 kts 109°
2026-05-06 01:36 37.61685 -122.37420 21 ft 18 kts 115°
2026-05-06 01:37 37.61627 -122.37285 21 ft 17 kts 121°
2026-05-06 01:37 37.61569 -122.37155 22 ft 17 kts 116°
2026-05-06 01:37 37.61517 -122.37028 21 ft 16 kts 117°
2026-05-06 01:37 37.61457 -122.36911 21 ft 16 kts 131°
2026-05-06 01:38 37.61384 -122.36808 21 ft 15 kts 128°
2026-05-06 01:38 37.61328 -122.36691 22 ft 17 kts 117°
2026-05-06 01:38 37.61274 -122.36562 23 ft 16 kts 118°
2026-05-06 01:38 37.61221 -122.36438 22 ft 16 kts 118°
2026-05-06 01:39 37.61171 -122.36319 22 ft 15 kts 117°
2026-05-06 01:39 37.61124 -122.36204 22 ft 14 kts 118°
2026-05-06 01:39 37.61077 -122.36095 21 ft 14 kts 118°
2026-05-06 01:39 37.61054 -122.35991 21 ft 2 kts 85°
2026-05-06 01:48 37.61054 -122.35990 21 ft 1 kts 85°
2026-05-06 01:48 37.61080 -122.35923 23 ft 14 kts 49°
2026-05-06 01:48 37.61169 -122.35870 21 ft 15 kts 351°
2026-05-06 01:48 37.61220 -122.35956 21 ft 11 kts 297°
2026-05-06 01:49 37.61307 -122.36162 23 ft 56 kts 297°
2026-05-06 01:49 37.61590 -122.36838 22 ft 115 kts 298°
2026-05-06 01:49 37.62045 -122.37904 64 ft 157 kts 298°
2026-05-06 01:49 37.62559 -122.39140 728 ft 156 kts 296°
2026-05-06 01:50 37.63085 -122.40406 1226 ft 169 kts 297°
2026-05-06 01:50 37.63664 -122.41772 1647 ft 185 kts 297°
2026-05-06 01:50 37.64302 -122.43227 2036 ft 197 kts 298°
2026-05-06 01:50 37.64989 -122.44805 2246 ft 214 kts 297°
2026-05-06 01:51 37.65734 -122.46501 2560 ft 227 kts 298°
2026-05-06 01:51 37.66517 -122.48259 3157 ft 231 kts 295°
2026-05-06 01:51 37.66867 -122.50258 3439 ft 247 kts 263°
2026-05-06 01:51 37.66239 -122.52285 3970 ft 254 kts 233°
2026-05-06 01:52 37.64857 -122.53717 4547 ft 264 kts 205°
2026-05-06 01:52 37.63039 -122.54150 5131 ft 272 kts 177°
2026-05-06 01:52 37.61159 -122.53612 5600 ft 285 kts 159°
2026-05-06 01:52 37.59313 -122.52658 6344 ft 286 kts 155°
2026-05-06 01:53 37.57455 -122.51652 6938 ft 295 kts 155°
2026-05-06 01:53 37.55546 -122.50664 7678 ft 298 kts 156°
2026-05-06 01:53 37.53617 -122.49706 8493 ft 299 kts 157°
2026-05-06 01:53 37.51671 -122.48758 9293 ft 302 kts 156°
2026-05-06 01:54 37.49681 -122.47827 10043 ft 307 kts 162°
2026-05-06 01:54 37.47514 -122.47605 10460 ft 325 kts 185°
2026-05-06 01:54 37.45218 -122.47996 10636 ft 348 kts 188°
2026-05-06 01:54 37.42755 -122.48489 10853 ft 368 kts 188°
2026-05-06 01:55 37.40191 -122.49013 11357 ft 376 kts 188°
2026-05-06 01:55 37.37588 -122.49534 11971 ft 381 kts 188°
2026-05-06 01:55 37.34956 -122.50047 12641 ft 384 kts 188°
2026-05-06 01:55 37.32294 -122.50554 13335 ft 387 kts 188°
2026-05-06 01:56 37.29617 -122.51057 14000 ft 391 kts 187°
2026-05-06 01:56 37.26905 -122.51561 14606 ft 395 kts 187°
2026-05-06 01:56 37.24171 -122.52068 15225 ft 399 kts 187°
2026-05-06 01:56 37.21426 -122.52576 15865 ft 403 kts 187°
2026-05-06 01:57 37.18623 -122.53095 16506 ft 407 kts 187°
2026-05-06 01:57 37.15800 -122.53616 17097 ft 413 kts 187°
2026-05-06 01:57 37.12945 -122.54144 17693 ft 417 kts 187°
2026-05-06 01:57 37.10057 -122.54678 18309 ft 421 kts 187°
2026-05-06 01:58 37.07173 -122.55210 18838 ft 425 kts 187°
2026-05-06 01:58 37.04197 -122.55759 19387 ft 428 kts 186°
2026-05-06 01:58 37.01224 -122.55896 19885 ft 428 kts 169°
2026-05-06 01:58 36.98413 -122.54891 20437 ft 423 kts 150°
2026-05-06 01:59 36.95856 -122.53115 21034 ft 421 kts 145°
2026-05-06 01:59 36.93336 -122.51229 21587 ft 423 kts 144°
2026-05-06 01:59 36.90806 -122.49313 22091 ft 426 kts 144°
2026-05-06 01:59 36.88253 -122.47385 22624 ft 429 kts 144°
2026-05-06 02:00 36.85685 -122.45463 23149 ft 431 kts 144°
2026-05-06 02:00 36.83100 -122.43545 23657 ft 434 kts 144°
2026-05-06 02:00 36.80492 -122.41622 24086 ft 436 kts 144°
2026-05-06 02:00 36.77867 -122.39694 24494 ft 439 kts 144°
2026-05-06 02:01 36.75227 -122.37761 24901 ft 441 kts 144°
2026-05-06 02:01 36.72606 -122.35844 25283 ft 444 kts 144°
2026-05-06 02:01 36.69922 -122.33884 25686 ft 447 kts 144°
2026-05-06 02:01 36.67223 -122.31913 26061 ft 449 kts 143°
2026-05-06 02:02 36.64519 -122.29941 26431 ft 452 kts 143°
2026-05-06 02:02 36.61795 -122.27955 26786 ft 455 kts 143°
2026-05-06 02:02 36.59049 -122.25954 27135 ft 458 kts 143°
2026-05-06 02:02 36.56288 -122.23945 27490 ft 460 kts 143°
2026-05-06 02:03 36.53517 -122.21929 27840 ft 462 kts 143°
2026-05-06 02:03 36.50769 -122.19933 28182 ft 465 kts 143°
2026-05-06 02:03 36.47971 -122.17901 28511 ft 467 kts 143°
2026-05-06 02:03 36.45158 -122.15861 28842 ft 469 kts 143°
2026-05-06 02:04 36.42334 -122.13814 29150 ft 472 kts 143°
2026-05-06 02:04 36.39489 -122.11753 29461 ft 474 kts 143°
2026-05-06 02:04 36.36633 -122.09686 29763 ft 476 kts 143°
2026-05-06 02:04 36.33760 -122.07609 30069 ft 478 kts 143°
2026-05-06 02:05 36.30872 -122.05524 30423 ft 478 kts 143°
2026-05-06 02:05 36.28004 -122.03457 30856 ft 476 kts 143°
2026-05-06 02:05 36.25149 -122.01402 31269 ft 473 kts 143°
2026-05-06 02:05 36.22302 -121.99351 31618 ft 473 kts 142°
2026-05-06 02:06 36.19448 -121.97295 31925 ft 473 kts 142°
2026-05-06 02:06 36.16645 -121.95277 32249 ft 472 kts 142°
2026-05-06 02:06 36.13800 -121.93232 32607 ft 471 kts 142°
2026-05-06 02:06 36.10965 -121.91196 32968 ft 470 kts 142°
2026-05-06 02:07 36.08140 -121.89168 33283 ft 470 kts 142°
2026-05-06 02:07 36.05313 -121.87140 33601 ft 469 kts 142°
2026-05-06 02:07 36.02492 -121.85119 33934 ft 468 kts 142°
2026-05-06 02:07 35.99797 -121.82926 34202 ft 457 kts 130°
2026-05-06 02:08 35.97750 -121.80038 34432 ft 443 kts 119°
2026-05-06 02:08 35.95907 -121.77005 34751 ft 442 kts 119°
2026-05-06 02:08 35.94057 -121.73973 34990 ft 442 kts 119°
2026-05-06 02:08 35.92196 -121.70951 35203 ft 443 kts 120°
2026-05-06 02:09 35.90345 -121.67974 35411 ft 444 kts 120°
2026-05-06 02:09 35.88458 -121.64960 35632 ft 444 kts 120°
2026-05-06 02:09 35.86561 -121.61944 35856 ft 444 kts 120°
2026-05-06 02:09 35.84665 -121.58936 36069 ft 445 kts 121°
2026-05-06 02:10 35.82764 -121.55926 36284 ft 445 kts 121°
2026-05-06 02:10 35.80864 -121.52921 36507 ft 445 kts 121°
2026-05-06 02:10 35.78959 -121.49907 36673 ft 446 kts 121°
2026-05-06 02:10 35.77046 -121.46883 36850 ft 447 kts 121°
2026-05-06 02:11 35.75136 -121.43867 37085 ft 447 kts 121°
2026-05-06 02:11 35.73224 -121.40851 37306 ft 446 kts 121°
2026-05-06 02:11 35.71316 -121.37843 37484 ft 447 kts 121°
2026-05-06 02:11 35.69394 -121.34814 37657 ft 447 kts 122°
2026-05-06 02:12 35.67478 -121.31797 37851 ft 448 kts 122°
2026-05-06 02:12 35.65559 -121.28779 38031 ft 448 kts 122°
2026-05-06 02:12 35.61722 -121.22751 38279 ft 451 kts 122°
2026-05-06 02:13 35.59785 -121.19714 38477 ft 451 kts 122°
2026-05-06 02:13 35.57845 -121.16675 38662 ft 451 kts 123°
2026-05-06 02:13 35.55901 -121.13628 38790 ft 452 kts 123°
2026-05-06 02:13 35.53962 -121.10594 38900 ft 452 kts 123°
2026-05-06 02:14 35.52017 -121.07553 39013 ft 453 kts 123°
2026-05-06 02:14 35.50117 -121.04515 39050 ft 454 kts 121°
2026-05-06 02:14 35.46442 -120.98189 39075 ft 456 kts 120°
2026-05-06 02:15 35.43390 -120.92826 39074 ft 460 kts 120°
2026-05-06 02:15 35.39087 -120.85342 39073 ft 463 kts 120°
2026-05-06 02:16 35.35350 -120.78913 39050 ft 460 kts 121°
2026-05-06 02:16 35.32262 -120.73625 39060 ft 458 kts 121°
2026-05-06 02:17 35.28558 -120.67290 39065 ft 456 kts 121°
2026-05-06 02:17 35.24874 -120.60996 39061 ft 454 kts 121°
2026-05-06 02:18 35.21190 -120.54710 39062 ft 455 kts 121°
2026-05-06 02:18 35.17487 -120.48401 39079 ft 461 kts 121°
2026-05-06 02:19 35.13722 -120.42000 39078 ft 467 kts 121°
2026-05-06 02:19 35.09903 -120.35523 39066 ft 470 kts 121°
2026-05-06 02:20 35.04135 -120.25763 39068 ft 474 kts 122°
2026-05-06 02:21 35.00297 -120.19284 39059 ft 475 kts 122°
2026-05-06 02:21 34.96421 -120.12752 39055 ft 474 kts 122°
2026-05-06 02:22 34.92564 -120.06268 39048 ft 468 kts 121°
2026-05-06 02:22 34.88759 -119.99882 39030 ft 464 kts 122°
2026-05-06 02:23 34.84959 -119.93508 39028 ft 465 kts 122°
2026-05-06 02:23 34.81168 -119.87163 39031 ft 466 kts 122°
2026-05-06 02:24 34.77341 -119.80769 39037 ft 468 kts 122°
2026-05-06 02:24 34.73492 -119.74351 39010 ft 470 kts 123°
2026-05-06 02:25 34.69627 -119.67918 39010 ft 472 kts 123°
2026-05-06 02:25 34.65742 -119.61467 39012 ft 472 kts 123°
2026-05-06 02:26 34.61881 -119.55064 39014 ft 473 kts 123°
2026-05-06 02:26 34.57984 -119.48615 39006 ft 474 kts 123°
2026-05-06 02:27 34.54082 -119.42167 39015 ft 475 kts 123°
2026-05-06 02:27 34.50171 -119.35717 39011 ft 474 kts 123°
2026-05-06 02:28 34.46258 -119.29276 39012 ft 473 kts 123°
2026-05-06 02:28 34.42359 -119.22869 39029 ft 471 kts 124°
2026-05-06 02:29 34.38467 -119.16484 39017 ft 470 kts 124°
2026-05-06 02:29 34.34589 -119.10134 39017 ft 468 kts 124°
2026-05-06 02:30 34.30738 -119.03839 38794 ft 472 kts 124°
2026-05-06 02:30 34.28779 -119.00639 38242 ft 473 kts 125°
2026-05-06 02:30 34.26818 -118.97441 37705 ft 470 kts 124°
2026-05-06 02:30 34.24865 -118.94260 37162 ft 469 kts 124°
2026-05-06 02:31 34.22924 -118.91101 36603 ft 468 kts 124°
2026-05-06 02:31 34.20983 -118.87944 36043 ft 467 kts 124°
2026-05-06 02:31 34.19045 -118.84795 35451 ft 467 kts 124°
2026-05-06 02:31 34.17125 -118.81676 34875 ft 468 kts 123°
2026-05-06 02:32 34.15181 -118.78523 34324 ft 467 kts 123°
2026-05-06 02:32 34.13249 -118.75391 33927 ft 463 kts 123°
2026-05-06 02:32 34.11333 -118.72289 33435 ft 459 kts 123°
2026-05-06 02:32 34.09427 -118.69205 33039 ft 454 kts 123°
2026-05-06 02:33 34.07545 -118.66163 32661 ft 449 kts 123°
2026-05-06 02:33 34.06313 -118.64173 32406 ft 445 kts 123°
2026-05-06 02:33 34.02037 -118.57273 31509 ft 433 kts 122°
2026-05-06 02:34 34.00266 -118.54417 31139 ft 428 kts 122°
2026-05-06 02:34 33.98490 -118.51556 30755 ft 423 kts 122°
2026-05-06 02:34 33.96737 -118.48731 30372 ft 419 kts 123°
2026-05-06 02:34 33.94995 -118.45929 29935 ft 416 kts 124°
2026-05-06 02:35 33.93260 -118.43154 29516 ft 412 kts 125°
2026-05-06 02:35 33.91406 -118.40529 29042 ft 411 kts 129°
2026-05-06 02:35 33.89458 -118.38027 28647 ft 407 kts 130°
2026-05-06 02:35 33.87509 -118.35585 28270 ft 402 kts 130°
2026-05-06 02:36 33.85589 -118.33166 27902 ft 397 kts 130°
2026-05-06 02:36 33.83705 -118.30761 27538 ft 392 kts 129°
2026-05-06 02:36 33.81850 -118.28370 27171 ft 388 kts 129°
2026-05-06 02:36 33.80023 -118.26007 26800 ft 384 kts 129°
2026-05-06 02:37 33.78211 -118.23664 26396 ft 382 kts 130°
2026-05-06 02:37 33.76411 -118.21324 26007 ft 380 kts 130°
2026-05-06 02:37 33.74635 -118.18992 25622 ft 377 kts 130°
2026-05-06 02:37 33.72890 -118.16696 25249 ft 375 kts 130°
2026-05-06 02:38 33.71358 -118.14678 24916 ft 373 kts 130°
2026-05-06 02:38 33.69602 -118.12368 24540 ft 372 kts 130°
2026-05-06 02:38 33.67863 -118.10085 24178 ft 370 kts 130°
2026-05-06 02:38 33.66128 -118.07808 23806 ft 368 kts 130°
2026-05-06 02:39 33.64402 -118.05545 23401 ft 366 kts 130°
2026-05-06 02:39 33.62682 -118.03292 22971 ft 364 kts 130°
2026-05-06 02:39 33.60975 -118.01057 22589 ft 361 kts 130°
2026-05-06 02:39 33.59304 -117.98870 22210 ft 359 kts 130°
2026-05-06 02:40 33.57622 -117.96672 21831 ft 356 kts 130°
2026-05-06 02:40 33.55948 -117.94486 21467 ft 354 kts 131°
2026-05-06 02:40 33.54257 -117.92335 21063 ft 353 kts 133°
2026-05-06 02:40 33.52499 -117.90275 20635 ft 353 kts 134°
2026-05-06 02:41 33.50723 -117.88250 20262 ft 351 kts 135°
2026-05-06 02:41 33.48956 -117.86230 19881 ft 350 kts 134°
2026-05-06 02:41 33.47208 -117.84217 19524 ft 348 kts 134°
2026-05-06 02:41 33.45493 -117.82233 19184 ft 346 kts 134°
2026-05-06 02:42 33.43764 -117.80232 18836 ft 345 kts 135°
2026-05-06 02:42 33.41998 -117.78291 18469 ft 343 kts 137°
2026-05-06 02:42 33.40214 -117.76397 18099 ft 342 kts 137°
2026-05-06 02:42 33.38431 -117.74518 17709 ft 341 kts 137°
2026-05-06 02:43 33.36655 -117.72639 17315 ft 340 kts 137°
2026-05-06 02:43 33.34886 -117.70762 16943 ft 339 kts 137°
2026-05-06 02:43 33.33130 -117.68891 16585 ft 337 kts 137°
2026-05-06 02:43 33.31384 -117.67030 16227 ft 335 kts 137°
2026-05-06 02:44 33.29646 -117.65177 15881 ft 334 kts 137°
2026-05-06 02:44 33.27921 -117.63338 15533 ft 332 kts 137°
2026-05-06 02:44 33.26198 -117.61503 15182 ft 331 kts 137°
2026-05-06 02:44 33.24481 -117.59678 15006 ft 331 kts 137°
2026-05-06 02:45 33.22747 -117.57848 14967 ft 332 kts 137°
2026-05-06 02:45 33.21034 -117.56047 14955 ft 324 kts 137°
2026-05-06 02:45 33.19379 -117.54308 14955 ft 311 kts 137°
2026-05-06 02:45 33.17787 -117.52634 14952 ft 299 kts 137°
2026-05-06 02:46 33.16242 -117.51009 14963 ft 295 kts 137°
2026-05-06 02:46 33.14647 -117.49332 15008 ft 318 kts 137°
2026-05-06 02:46 33.12902 -117.47590 14996 ft 343 kts 142°
2026-05-06 02:46 33.10940 -117.45946 14963 ft 344 kts 145°
2026-05-06 02:47 33.08946 -117.44337 14977 ft 347 kts 145°
2026-05-06 02:47 33.06952 -117.42708 14981 ft 348 kts 144°
2026-05-06 02:47 33.04962 -117.41064 14967 ft 348 kts 144°
2026-05-06 02:47 33.02989 -117.39415 14981 ft 343 kts 144°
2026-05-06 02:48 33.01069 -117.37804 14979 ft 331 kts 144°
2026-05-06 02:48 32.99219 -117.36249 14975 ft 318 kts 144°
2026-05-06 02:48 32.97450 -117.34764 14974 ft 305 kts 144°
2026-05-06 02:48 32.95746 -117.33334 14930 ft 295 kts 144°
2026-05-06 02:49 32.94069 -117.31930 14632 ft 295 kts 144°
2026-05-06 02:49 32.92393 -117.30527 14203 ft 295 kts 144°
2026-05-06 02:49 32.90717 -117.29128 13773 ft 294 kts 144°
2026-05-06 02:49 32.89038 -117.27731 13282 ft 294 kts 144°
2026-05-06 02:50 32.87394 -117.26365 13052 ft 284 kts 144°
2026-05-06 02:50 32.85776 -117.25022 12504 ft 288 kts 144°
2026-05-06 02:50 32.84133 -117.23657 12115 ft 285 kts 144°
2026-05-06 02:50 32.82534 -117.22329 11678 ft 284 kts 143°
2026-05-06 02:51 32.81183 -117.20638 11205 ft 282 kts 116°
2026-05-06 02:51 32.80489 -117.18500 10838 ft 276 kts 104°
2026-05-06 02:51 32.80009 -117.16284 10404 ft 276 kts 102°
2026-05-06 02:51 32.79556 -117.14078 10038 ft 273 kts 103°
2026-05-06 02:52 32.79089 -117.11886 9585 ft 273 kts 103°
2026-05-06 02:52 32.78616 -117.09730 9315 ft 265 kts 103°
2026-05-06 02:52 32.78151 -117.07638 9001 ft 260 kts 103°
2026-05-06 02:52 32.77627 -117.05563 8455 ft 265 kts 111°
2026-05-06 02:53 32.76854 -117.03556 7852 ft 272 kts 115°
2026-05-06 02:53 32.76020 -117.01512 7296 ft 276 kts 115°
2026-05-06 02:53 32.75202 -116.99478 6886 ft 272 kts 115°
2026-05-06 02:53 32.74466 -116.97412 6441 ft 270 kts 108°
2026-05-06 02:54 32.73924 -116.95309 5937 ft 263 kts 105°
2026-05-06 02:54 32.73457 -116.93270 5448 ft 256 kts 106°
2026-05-06 02:54 32.72642 -116.91460 5061 ft 243 kts 136°
2026-05-06 02:54 32.71238 -116.90511 5004 ft 228 kts 170°
2026-05-06 02:55 32.69733 -116.90622 4963 ft 212 kts 204°
2026-05-06 02:55 32.68605 -116.91658 4676 ft 204 kts 238°
2026-05-06 02:55 32.68144 -116.93199 4334 ft 196 kts 259°
2026-05-06 02:55 32.67878 -116.94791 4037 ft 196 kts 261°
2026-05-06 02:56 32.67873 -116.96357 3982 ft 187 kts 288°
2026-05-06 02:56 32.68300 -116.97831 3993 ft 192 kts 286°
2026-05-06 02:56 32.68644 -116.99352 3993 ft 188 kts 285°
2026-05-06 02:56 32.68982 -117.00808 3912 ft 181 kts 286°
2026-05-06 02:57 32.69353 -117.02328 3212 ft 200 kts 286°
2026-05-06 02:57 32.69736 -117.03914 2813 ft 196 kts 286°
2026-05-06 02:57 32.70098 -117.05417 2525 ft 184 kts 286°
2026-05-06 02:57 32.70438 -117.06840 2235 ft 175 kts 286°
2026-05-06 02:58 32.70759 -117.08179 2011 ft 161 kts 285°
2026-05-06 02:58 32.71054 -117.09406 1739 ft 149 kts 286°
2026-05-06 02:58 32.71329 -117.10548 1505 ft 139 kts 285°
2026-05-06 02:58 32.71593 -117.11641 1324 ft 139 kts 285°
2026-05-06 02:59 32.71858 -117.12751 1108 ft 143 kts 285°
2026-05-06 02:59 32.72126 -117.13866 854 ft 137 kts 286°
2026-05-06 02:59 32.72382 -117.14922 686 ft 130 kts 286°
2026-05-06 02:59 32.72632 -117.15971 487 ft 134 kts 286°
2026-05-06 03:00 32.72889 -117.17034 289 ft 136 kts 286°
2026-05-06 03:00 32.73153 -117.18125 55 ft 137 kts 286°
2026-05-06 03:00 32.73324 -117.18817 23 ft 126 kts 287°
2026-05-06 03:00 32.73506 -117.19582 24 ft 66 kts 286°
2026-05-06 03:01 32.73576 -117.19869 27 ft 18 kts 286°
2026-05-06 03:01 32.73623 -117.20104 24 ft 23 kts 285°
2026-05-06 03:01 32.73599 -117.20207 23 ft 12 kts 210°
2026-05-06 03:01 32.73583 -117.20214 22 ft 0 kts 197°
2026-05-06 03:02 32.73572 -117.20218 22 ft 4 kts 197°
2026-05-06 03:02 32.73547 -117.20227 21 ft 4 kts 198°
2026-05-06 03:03 32.73523 -117.20245 21 ft 6 kts 230°
2026-05-06 03:03 32.73489 -117.20294 20 ft 9 kts 231°
2026-05-06 03:03 32.73466 -117.20328 20 ft 2 kts 231°
2026-05-06 03:03 32.73458 -117.20340 21 ft 1 kts 231°
2026-05-06 03:04 32.73455 -117.20345 21 ft 0 kts 231°